Precipitable_Water
1.29 1.20 1.00 0.98 0.99 1.06 1.08 1.12 1.22 1.17 1.25 1.32 1.24 1.24 1.24 1.25 1.25 1.23 1.21 1.20 1.23 1.24 1.24 1.21 1.11 1.01 0.92 0.90 0.89 0.87 0.85 0.90 0.94 1.14 1.29 1.21 1.12 1.09 1.07 1.05 0.94 1.10 1.19
1.42 1.24 1.00 0.97 0.96 1.02 1.03 1.07 1.16 1.15 1.22 1.25 1.22 1.20 1.23 1.26 1.25 1.22 1.23 1.20 1.18 1.18 1.18 1.16 1.08 0.98 0.95 0.95 0.93 0.87 0.88 0.97 1.08 1.12 1.10 1.21 1.24 1.16 1.05 1.02 0.95 1.01 1.02
1.22 1.11 1.00 0.98 1.00 1.02 1.03 1.02 1.01 1.04 1.16 1.26 1.21 1.24 1.23 1.20 1.23 1.28 1.31 1.26 1.21 1.18 1.18 1.15 1.10 1.06 0.99 0.96 0.95 0.86 0.99 1.09 1.13 1.20 1.19 1.05 1.09 1.19 1.16 1.11 1.00 0.93 0.95
1.12 1.01 0.95 0.96 1.01 1.06 1.06 1.04 0.99 0.97 0.98 1.08 1.19 1.13 1.12 1.20 1.17 1.20 1.25 1.27 1.25 1.29 1.19 1.12 1.10 1.09 1.08 1.01 0.95 0.94 1.09 1.17 1.24 1.27 1.27 1.13 0.97 1.02 1.08 1.14 1.15 1.12 1.08
1.08 0.97 0.94 0.93 0.99 1.05 1.08 1.08 1.04 0.99 0.96 0.96 0.99 1.03 1.02 1.01 1.15 1.17 1.20 1.22 1.29 1.26 1.20 1.11 1.11 1.11 1.09 1.02 0.95 1.00 1.14 1.23 1.30 1.36 1.36 1.12 0.99 0.92 0.99 1.07 1.11 1.15 1.13
1.09 1.16 1.11 1.00 1.03 1.05 1.05 1.05 1.04 1.03 0.99 0.94 0.93 0.92 0.91 0.94 0.95 1.03 1.11 1.16 1.18 1.14 1.15 1.12 1.11 1.12 1.09 1.05 0.96 1.00 1.13 1.20 1.27 1.26 1.17 1.12 0.99 0.90 0.96 1.03 1.06 1.06 1.04
1.23 1.41 1.45 1.35 1.16 1.09 1.10 1.07 1.06 1.05 1.03 0.99 0.95 0.91 0.88 0.86 0.89 0.93 0.97 1.03 1.04 1.07 1.12 1.12 1.10 1.13 1.09 1.04 1.02 0.97 1.11 1.19 1.23 1.23 1.29 1.21 0.93 0.91 0.90 0.91 0.91 0.95 0.97
1.30 1.45 1.55 1.56 1.53 1.43 1.40 1.33 1.23 1.13 1.10 1.07 1.01 0.97 0.94 0.89 0.82 0.80 0.86 0.90 0.94 0.98 1.03 1.08 1.10 1.09 1.11 1.07 1.05 1.04 1.04 1.13 1.21 1.09 1.23 1.17 0.95 0.91 0.92 0.90 0.88 0.85 0.91
1.33 1.40 1.47 1.56 1.61 1.62 1.62 1.58 1.49 1.39 1.27 1.15 1.12 1.08 1.14 1.13 1.14 1.06 1.01 0.89 0.82 0.85 0.89 0.93 1.00 1.05 1.05 1.07 1.09 1.08 1.05 1.14 1.18 1.23 1.23 1.16 0.96 0.91 0.94 0.90 0.89 0.86 0.84
1.25 1.36 1.42 1.48 1.56 1.53 1.50 1.51 1.54 1.51 1.43 1.36 1.25 1.13 1.28 1.39 1.36 1.45 1.33 1.19 1.03 0.92 0.81 0.78 0.81 0.86 0.93 0.98 0.98 1.02 1.04 1.18 1.15 1.32 1.37 1.18 1.08 0.92 0.94 0.94 0.89 0.88 0.86
1.09 1.15 1.23 1.29 1.34 1.36 1.41 1.41 1.42 1.44 1.48 1.46 1.44 1.35 1.43 1.45 1.41 1.60 1.48 1.33 1.24 1.21 1.13 1.04 0.97 0.80 0.71 0.77 0.87 0.93 1.03 1.16 1.20 1.39 1.27 1.27 1.12 0.99 0.94 0.97 0.95 0.87 0.85
0.89 0.92 1.00 1.01 1.06 1.10 1.08 1.15 1.16 1.19 1.23 1.25 1.27 1.35 1.37 1.41 1.43 1.40 1.34 1.36 1.39 1.40 1.34 1.36 1.32 1.26 1.17 0.98 0.98 1.05 1.04 1.15 1.06 1.15 1.13 1.22 1.04 0.99 1.04 1.01 1.00 0.97 0.88
0.76 0.73 0.73 0.70 0.67 0.66 0.66 0.66 0.66 0.65 0.73 0.75 0.83 0.95 1.15 1.25 1.35 1.39 1.44 1.44 1.35 1.28 1.42 1.57 1.62 1.45 1.43 1.24 1.11 1.06 1.08 1.19 1.09 1.26 1.47 1.37 1.20 1.05 1.05 1.09 1.06 1.01 1.01
0.48 0.45 0.45 0.46 0.45 0.46 0.51 0.48 0.49 0.50 0.51 0.51 0.52 0.52 0.61 0.74 0.91 1.07 1.19 1.28 1.34 1.44 1.40 1.36 1.32 1.45 1.54 1.48 1.32 1.11 0.99 1.14 1.14 1.23 1.28 1.41 1.47 1.26 1.07 1.05 1.09 1.10 1.01
0.32 0.36 0.40 0.43 0.45 0.46 0.44 0.48 0.46 0.49 0.47 0.50 0.46 0.47 0.47 0.50 0.55 0.64 0.77 0.91 0.97 1.12 1.27 1.30 1.36 1.35 1.29 1.36 1.49 1.42 1.27 1.20 1.19 1.28 1.27 1.36 1.25 1.24 1.29 1.19 1.14 1.13 1.11
0.34 0.35 0.39 0.40 0.44 0.46 0.45 0.47 0.47 0.49 0.49 0.50 0.50 0.46 0.45 0.46 0.48 0.49 0.50 0.48 0.52 0.64 0.79 0.88 1.07 1.20 1.26 1.36 1.38 1.50 1.71 1.44 1.44 1.65 1.53 1.45 1.06 1.40 1.37 1.33 1.26 1.23 1.19
0.38 0.37 0.39 0.43 0.44 0.44 0.43 0.45 0.44 0.45 0.44 0.43 0.43 0.43 0.42 0.41 0.44 0.45 0.44 0.41 0.48 0.52 0.51 0.51 0.58 0.76 0.93 1.15 1.20 1.29 1.33 1.35 1.47 1.42 1.49 1.48 1.49 1.55 1.52 1.41 1.32 1.42 1.28
0.39 0.39 0.40 0.42 0.42 0.44 0.43 0.42 0.42 0.41 0.43 0.42 0.43 0.43 0.44 0.41 0.42 0.45 0.39 0.37 0.43 0.43 0.42 0.40 0.44 0.46 0.49 0.56 0.71 0.85 1.08 1.23 1.28 1.27 1.26 1.40 1.43 1.48 1.37 1.35 1.23 1.28 1.51
0.39 0.38 0.38 0.37 0.37 0.37 0.40 0.42 0.42 0.40 0.40 0.41 0.39 0.38 0.40 0.39 0.39 0.40 0.40 0.37 0.41 0.37 0.36 0.33 0.33 0.39 0.44 0.46 0.43 0.45 0.53 0.73 1.05 1.14 1.16 1.27 1.21 1.24 1.32 1.40 1.30 1.37 1.45
0.42 0.41 0.41 0.39 0.38 0.36 0.34 0.37 0.37 0.37 0.38 0.38 0.38 0.35 0.35 0.35 0.38 0.33 0.35 0.36 0.35 0.35 0.31 0.30 0.27 0.34 0.42 0.43 0.38 0.38 0.37 0.51 0.66 0.94 1.16 1.26 1.36 1.34 1.40 1.54 1.46 1.45 1.42
0.43 0.42 0.41 0.40 0.36 0.39 0.35 0.33 0.33 0.34 0.34 0.35 0.36 0.37 0.34 0.37 0.34 0.36 0.33 0.35 0.34 0.34 0.30 0.29 0.25 0.25 0.31 0.39 0.34 0.24 0.51 0.72 0.74 0.93 1.08 1.19 1.24 1.23 1.32 1.40 1.45 1.46 1.52
0.44 0.43 0.44 0.43 0.41 0.40 0.41 0.39 0.39 0.37 0.40 0.39 0.40 0.40 0.39 0.38 0.37 0.33 0.35 0.33 0.34 0.35 0.30 0.29 0.26 0.23 0.26 0.34 0.32 0.27 0.21 0.49 0.61 0.91 0.89 0.88 0.96 1.05 1.11 1.28 1.34 1.49 1.47
0.45 0.43 0.46 0.46 0.46 0.43 0.48 0.45 0.45 0.44 0.46 0.44 0.45 0.44 0.45 0.43 0.41 0.39 0.39 0.37 0.36 0.38 0.32 0.32 0.30 0.27 0.22 0.27 0.34 0.34 0.24 0.23 0.40 0.66 0.65 0.73 0.68 1.01 0.93 0.98 1.07 1.14 1.37
0.48 0.47 0.50 0.48 0.48 0.50 0.49 0.49 0.47 0.45 0.42 0.46 0.48 0.49 0.48 0.48 0.45 0.44 0.41 0.41 0.39 0.39 0.37 0.36 0.36 0.33 0.29 0.22 0.26 0.31 0.37 0.34 0.31 0.26 0.38 0.44 0.48 0.51 0.56 0.57 0.80 1.00 1.27
0.53 0.52 0.51 0.53 0.53 0.53 0.54 0.52 0.51 0.49 0.50 0.51 0.52 0.50 0.52 0.50 0.50 0.49 0.47 0.44 0.42 0.42 0.40 0.40 0.39 0.37 0.36 0.31 0.27 0.24 0.27 0.30 0.32 0.33 0.21 0.22 0.28 0.34 0.31 0.32 0.49 0.74 1.04
0.52 0.51 0.54 0.54 0.54 0.56 0.58 0.59 0.58 0.56 0.55 0.53 0.53 0.51 0.51 0.50 0.51 0.52 0.51 0.49 0.48 0.46 0.44 0.44 0.43 0.42 0.40 0.38 0.35 0.32 0.27 0.24 0.25 0.25 0.26 0.24 0.25 0.28 0.29 0.30 0.37 0.54 0.75
Wind_Speed
12 13 14 14 15 15 15 15 15 15 14 14 14 14 13 13 13 13 13 13 13 14 14 14 14 14 14 14 14 14 13 13 13 13 13 13 14 14 14 14 14 14 14
11 13 14 14 15 15 15 15 15 15 14 13 12 13 13 13 12 12 12 12 12 13 13 13 13 13 13 13 13 13 13 12 12 12 13 13 12 12 12 12 12 12 12
10 11 13 13 14 14 14 14 14 14 14 13 12 11 11 12 12 12 12 11 11 11 12 12 12 12 12 12 12 12 12 11 11 10 9 11 10 11 11 11 10 10 10
10 11 12 13 13 14 14 14 13 13 13 12 11 10 9 10 10 10 10 10 10 10 10 10 10 10 10 10 11 10 10 10 9 7 6 7 8 8 9 9 9 9 9
10 11 11 12 12 13 13 13 13 12 12 11 10 9 8 7 7 7 8 8 8 8 9 9 9 8 8 9 9 9 9 9 9 7 6 7 7 7 7 7 8 8 8
9 10 11 11 11 12 12 12 12 12 11 11 10 9 8 7 6 6 5 6 6 7 7 7 8 8 7 7 7 7 7 8 8 6 6 6 6 6 6 6 6 5 5
8 9 10 11 11 11 11 11 11 11 10 10 9 9 8 7 6 6 5 5 5 5 5 5 6 6 5 5 5 5 5 6 7 7 5 5 5 4 4 4 4 4 4
7 8 9 9 10 11 10 11 11 10 10 10 9 8 8 8 7 6 6 6 6 5 5 5 4 4 4 4 4 4 4 4 5 4 3 3 3 1 1 1 1 1 2
7 7 8 9 9 10 10 10 10 10 10 10 9 9 9 8 8 7 7 7 7 7 7 7 6 6 6 5 5 5 4 4 4 3 1 2 3 2 2 2 2 2 2
7 8 9 9 9 9 10 10 10 10 10 10 10 10 11 10 10 9 9 10 9 9 9 9 9 9 9 8 8 7 6 6 6 6 4 4 4 4 4 4 5 5 5
7 9 9 10 10 11 11 11 11 11 12 12 12 12 12 11 10 9 11 12 12 12 11 11 11 11 12 12 10 9 9 8 9 7 6 6 7 6 6 6 6 7 7
9 10 11 11 11 12 12 12 13 13 13 14 14 14 14 13 13 13 14 13 13 14 14 15 14 14 13 12 14 14 12 12 11 9 9 9 8 8 8 9 9 8 8
9 10 12 12 13 13 13 13 14 14 14 15 15 15 14 14 14 15 15 16 16 16 15 14 15 17 17 16 16 15 15 15 13 13 11 11 11 11 11 11 11 11 11
10 11 12 13 13 13 14 14 14 15 15 16 16 16 16 16 16 17 17 17 18 18 19 19 19 19 18 17 18 18 19 17 16 16 15 13 13 13 13 13 13 12 12
10 11 12 13 13 14 14 14 14 15 15 16 16 17 17 17 18 18 18 19 20 20 21 21 21 22 23 21 20 20 20 20 19 18 17 16 18 17 16 16 15 15 14
10 11 12 13 14 14 14 15 15 15 15 15 16 16 17 16 17 18 19 20 21 22 22 22 23 23 24 24 24 22 20 21 20 20 19 20 21 22 19 19 19 18 17
11 12 13 13 14 14 14 14 15 15 15 15 15 16 16 17 17 18 19 20 21 22 23 24 24 24 23 25 26 27 27 26 25 24 23 22 20 20 21 21 20 20 21
11 12 13 14 14 14 14 14 14 15 14 15 15 15 16 17 18 18 18 19 21 21 22 23 23 24 24 25 25 26 28 29 29 29 27 26 24 22 23 22 24 23 22
11 12 13 14 14 15 14 14 14 14 14 14 15 16 17 18 19 19 19 20 20 20 20 20 21 22 23 24 26 27 28 28 29 29 29 28 29 28 27 27 26 25 25
11 12 13 14 15 15 15 14 14 15 15 15 16 17 17 18 19 19 19 19 19 19 19 19 19 19 20 22 24 25 26 26 26 27 27 28 27 26 24 23 23 23 24
11 12 13 14 15 15 15 15 15 16 16 16 16 17 18 18 19 19 19 19 19 18 19 19 19 18 18 20 20 21 19 15 19 21 23 25 25 25 27 25 23 23 24
11 13 14 14 15 15 16 16 16 16 16 17 17 18 18 19 19 19 19 19 19 18 18 18 18 18 17 18 17 17 16 17 16 15 17 20 21 24 24 24 24 20 22
12 13 14 14 15 16 17 16 17 16 17 18 18 19 19 19 19 19 19 19 19 18 18 18 18 18 17 16 16 14 13 15 19 19 19 19 21 22 22 23 23 25 22
12 14 14 15 15 16 17 17 18 18 19 19 20 20 20 20 20 20 20 20 20 20 19 19 19 18 18 18 17 15 14 15 15 17 19 21 22 22 23 25 26 25 25
13 14 15 16 16 17 18 19 19 20 20 21 21 22 21 22 22 22 22 23 22 22 22 22 21 21 20 20 19 18 18 17 17 17 19 19 20 20 21 21 22 23 25
15 16 16 17 18 18 19 20 21 22 23 23 23 24 23 24 24 25 25 26 26 26 26 25 25 24 24 23 23 22 22 21 21 21 21 21 21 20 20 20 20 21 21
Wind_Direction
53 48 47 46 46 47 47 48 49 52 56 59 62 64 64 64 65 64 63 64 64 63 61 59 56 57 60 64 65 66 68 72 74 76 77 76 74 74 77 83 84 85 86
56 50 49 47 47 47 47 48 50 53 55 58 61 62 62 62 62 62 62 63 65 62 59 56 55 57 59 62 63 64 68 71 74 77 76 75 74 74 77 80 83 85 86
56 46 47 47 47 46 46 46 48 51 53 56 57 58 58 59 60 60 60 63 63 58 55 53 53 54 58 59 60 65 68 68 70 76 75 68 72 73 77 80 82 85 86
51 50 47 45 45 44 43 44 44 45 47 49 50 51 52 53 54 55 56 57 53 50 49 48 46 49 54 56 57 62 64 61 60 61 63 69 69 73 77 80 81 84 85
59 50 45 43 42 41 40 40 40 40 40 40 41 43 42 42 44 46 46 45 42 42 42 44 40 45 54 54 54 61 58 52 47 48 73 77 69 74 77 79 79 85 83
46 46 43 38 36 36 34 34 34 34 34 34 33 34 33 31 27 24 26 27 28 31 34 36 37 47 52 50 49 53 48 41 36 45 71 79 67 74 79 79 78 77 73
46 39 36 35 32 30 29 27 26 26 25 25 24 22 19 15 11 4 359 359 2 7 11 17 24 35 38 36 36 36 33 30 30 55 86 74 58 73 77 78 75 73 69
36 31 28 24 24 24 22 21 18 17 15 13 10 7 3 1 358 352 343 335 330 328 332 339 347 354 356 2 4 6 2 3 17 29 49 47 37 42 60 67 65 55 38
25 19 12 10 9 7 7 5 5 6 3 359 354 351 347 338 337 336 335 331 320 312 308 305 305 306 310 313 317 321 326 329 334 331 310 343 344 315 279 273 277 287 300
18 11 6 358 357 355 354 352 348 347 349 346 341 340 337 334 310 312 315 316 312 309 304 297 294 290 288 289 292 296 295 302 306 313 237 288 308 297 278 273 270 273 280
8 360 350 345 341 336 334 334 336 332 329 330 328 324 321 321 329 310 311 307 303 298 297 297 295 291 284 280 277 283 282 287 291 291 268 280 292 288 275 272 273 273 276
352 348 349 343 337 336 330 329 327 326 325 325 324 318 317 310 306 304 303 303 303 298 292 290 285 289 286 279 280 270 274 279 282 277 273 276 285 282 276 271 270 270 271
351 347 344 341 338 335 333 330 332 329 329 327 327 323 317 315 311 306 303 299 296 296 294 296 289 282 281 274 279 273 275 272 272 281 269 273 278 280 277 272 271 269 268
348 346 345 343 340 338 336 333 329 329 327 327 325 325 320 317 312 308 306 302 300 294 291 289 287 283 282 287 275 273 271 269 268 277 274 273 273 276 275 273 270 270 268
1 357 354 351 348 344 340 334 331 329 328 327 328 326 322 316 313 310 308 305 302 297 292 290 288 283 280 280 279 276 270 266 268 270 267 269 271 274 271 271 270 268 268
3 358 355 353 351 348 344 342 337 333 332 331 330 330 328 324 320 316 312 307 303 300 296 292 287 285 282 278 275 276 267 270 268 266 269 269 275 269 270 270 269 268 267
5 0 356 353 352 350 349 347 345 342 338 336 334 335 334 331 326 322 320 315 310 304 300 294 289 285 283 280 275 273 271 269 268 267 267 275 276 270 267 268 268 267 264
1 357 355 354 352 351 349 348 346 344 343 342 340 336 336 334 330 327 326 324 320 313 308 301 294 288 284 281 278 275 272 269 268 267 268 269 270 271 268 270 270 264 262
355 354 353 352 350 348 345 345 345 345 344 341 339 336 334 335 333 330 328 327 327 327 321 313 303 295 290 287 284 278 274 272 269 267 264 267 269 269 270 269 268 264 261
350 350 349 348 346 345 345 342 340 340 338 337 335 334 332 331 331 331 329 328 327 326 326 325 318 307 300 295 290 286 279 272 270 266 266 268 266 266 271 271 269 266 262
344 345 345 345 343 341 340 338 336 333 333 331 331 330 331 329 330 329 328 327 328 327 327 327 326 321 312 307 300 295 285 282 275 268 266 266 267 268 266 271 272 267 265
337 339 340 340 341 339 338 334 329 332 331 330 329 328 328 327 326 326 325 324 324 323 326 327 328 325 322 322 315 300 287 277 285 273 275 273 271 272 270 269 271 270 267
330 332 334 335 335 337 337 335 334 330 327 327 326 325 323 325 324 324 323 322 320 319 320 321 324 325 324 325 327 320 301 285 287 271 275 279 277 270 272 274 276 269 260
321 326 327 329 330 332 333 331 330 327 325 323 322 321 320 319 318 317 318 317 316 315 313 313 314 314 314 315 316 313 307 300 292 284 280 283 281 277 275 273 270 270 262
313 318 321 322 323 324 325 326 325 324 321 319 318 318 314 316 314 310 310 310 309 308 307 306 306 306 305 304 304 303 300 298 297 292 290 289 287 283 279 275 273 269 266
309 312 315 317 318 318 318 319 318 317 317 316 315 314 311 312 310 308 304 304 302 301 300 299 298 298 297 295 295 294 293 291 290 288 286 288 287 286 284 279 274 272 270